SORCE

导读 | 豆包AI

SORCE(太阳辐射与气候实验卫星)是美国NASA地球观测系统的一颗科学卫星,于2003年1月25日由飞马座XL火箭发射进入近地轨道,由科罗拉多大学团队运营。它的核心任务是高精度测量全波段太阳辐射,涵盖从X射线到近红外范围,持续记录太阳总辐照度与光谱辐照度数据,帮助科学家研究太阳活动变化对地球气候、大气臭氧的影响,延续了自1979年开始的空间太阳辐射观测记录,超期服役十余年后为后续太阳观测任务奠定了基础。

基本信息
目录编号:
27651
目录名称:
SORCE
国际标识:
2003-004A
轨道中心:
EARTH
卫星名称:
SORCE
卫星全名:
--
卫星状态:
在轨 (已飞行8497 天)
发射日期:
2003-01-25 UTC
国别 :
美国 (US)
星等 :
--
轨道信息
数据来源 国际轨道数据 AOE轨道数据
星历时间 2026-04-30T21:59:27+0800
14小时前
查看轨道信息
2026-05-01T03:00:00+0800
9小时前
查看轨道信息
半长轴 6934.406km 6934.402km
偏心率 0.0016038 0.001591
轨道倾角 39.989° 39.990°
近地点辐角 68.860° 70.611°
升交点赤经 173.222° 172.031°
平近点角 291.391° 340.796°
近地点 545.147km 545.232km
远地点 567.391km 567.298km
周期 95.780分钟 95.780分钟
每日圈数 15.034496 15.034509
详细信息
使用方式:
暂无
2D轨道图
3D轨道图
轨道高度分析图
轨道倾角分析图
轨道综合分析图
查看轨道综合分析图